Time,TemperatureF,DewpointF,PressureIn,WindDirection,WindDirectionDegrees,WindSpeedMPH,WindSpeedGustMPH,Humidity,HourlyPrecipIn,Conditions,Clouds,dailyrainin,SolarRadiationWatts/m^2,SoftwareType,DateUTC
2013-01-09 00:04:00,35.3,28.0,29.88,SW,214,0.0,0.0,76,0.00,,,0.00,0,weatherlink.com 1.10,2013-01-09 05:04:00,
2013-01-09 00:19:00,34.8,28.0,29.88,SW,214,0.0,0.0,77,0.00,,,0.00,0,weatherlink.com 1.10,2013-01-09 05:19:00,
2013-01-09 00:34:00,34.8,28.0,29.87,SW,214,0.0,0.0,77,0.00,,,0.00,0,weatherlink.com 1.10,2013-01-09 05:34:00,
2013-01-09 00:49:00,34.8,28.0,29.88,SW,214,0.0,1.0,77,0.00,,,0.00,0,weatherlink.com 1.10,2013-01-09 05:49:00,
2013-01-09 01:04:00,34.5,28.0,29.88,SW,214,0.0,0.0,78,0.00,,,0.00,0,weatherlink.com 1.10,2013-01-09 06:04:00,
2013-01-09 01:19:00,34.4,28.0,29.88,SW,214,0.0,0.0,78,0.00,,,0.00,0,weatherlink.com 1.10,2013-01-09 06:19:00,
2013-01-09 01:34:00,34.2,28.0,29.87,SW,219,1.0,2.0,79,0.00,,,0.00,0,weatherlink.com 1.10,2013-01-09 06:34:00,
2013-01-09 01:49:00,34.1,28.0,29.87,West,274,0.0,1.0,79,0.00,,,0.00,0,weatherlink.com 1.10,2013-01-09 06:49:00,
2013-01-09 02:04:00,33.9,28.0,29.87,West,274,0.0,2.0,80,0.00,,,0.00,0,weatherlink.com 1.10,2013-01-09 07:04:00,
2013-01-09 02:19:00,34.0,28.0,29.87,West,274,0.0,2.0,80,0.00,,,0.00,0,weatherlink.com 1.10,2013-01-09 07:19:00,
2013-01-09 02:34:00,33.9,28.0,29.87,West,274,0.0,0.0,80,0.00,,,0.00,0,weatherlink.com 1.10,2013-01-09 07:34:00,
2013-01-09 02:49:00,33.6,28.0,29.88,West,274,0.0,1.0,80,0.00,,,0.00,0,weatherlink.com 1.10,2013-01-09 07:49:00,
2013-01-09 03:04:00,33.7,28.0,29.88,West,274,0.0,2.0,80,0.00,,,0.00,0,weatherlink.com 1.10,2013-01-09 08:04:00,
2013-01-09 03:19:00,33.9,28.0,29.87,West,274,0.0,1.0,79,0.00,,,0.00,0,weatherlink.com 1.10,2013-01-09 08:19:00,
2013-01-09 03:34:00,34.3,28.0,29.87,West,274,0.0,1.0,78,0.00,,,0.00,0,weatherlink.com 1.10,2013-01-09 08:34:00,
2013-01-09 03:49:00,34.8,28.0,29.86,West,274,0.0,0.0,76,0.00,,,0.00,0,weatherlink.com 1.10,2013-01-09 08:49:00,
2013-01-09 04:04:00,35.1,28.0,29.86,West,274,0.0,0.0,74,0.00,,,0.00,0,weatherlink.com 1.10,2013-01-09 09:04:00,
2013-01-09 04:19:00,35.0,28.0,29.86,West,274,0.0,0.0,74,0.00,,,0.00,0,weatherlink.com 1.10,2013-01-09 09:19:00,
2013-01-09 04:34:00,34.5,27.0,29.86,West,274,0.0,0.0,74,0.00,,,0.00,0,weatherlink.com 1.10,2013-01-09 09:34:00,
2013-01-09 04:49:00,34.4,27.0,29.85,West,274,0.0,0.0,74,0.00,,,0.00,0,weatherlink.com 1.10,2013-01-09 09:49:00,
2013-01-09 05:04:00,34.2,27.0,29.86,West,274,0.0,0.0,75,0.00,,,0.00,0,weatherlink.com 1.10,2013-01-09 10:04:00,
2013-01-09 05:19:00,33.6,27.0,29.86,West,274,0.0,1.0,77,0.00,,,0.00,0,weatherlink.com 1.10,2013-01-09 10:19:00,
2013-01-09 05:34:00,33.4,28.0,29.86,West,274,0.0,0.0,79,0.00,,,0.00,0,weatherlink.com 1.10,2013-01-09 10:34:00,
2013-01-09 05:49:00,33.6,28.0,29.86,West,274,0.0,0.0,79,0.00,,,0.00,0,weatherlink.com 1.10,2013-01-09 10:49:00,
2013-01-09 06:04:00,34.5,27.0,29.86,West,274,0.0,0.0,75,0.00,,,0.00,0,weatherlink.com 1.10,2013-01-09 11:04:00,
2013-01-09 06:19:00,35.4,27.0,29.86,West,274,0.0,0.0,71,0.00,,,0.00,0,weatherlink.com 1.10,2013-01-09 11:19:00,
2013-01-09 06:34:00,35.5,27.0,29.86,West,274,0.0,0.0,71,0.00,,,0.00,0,weatherlink.com 1.10,2013-01-09 11:34:00,
2013-01-09 06:49:00,35.3,27.0,29.86,West,274,0.0,0.0,71,0.00,,,0.00,0,weatherlink.com 1.10,2013-01-09 11:49:00,
2013-01-09 07:04:00,35.2,27.0,29.87,West,274,0.0,0.0,71,0.00,,,0.00,0,weatherlink.com 1.10,2013-01-09 12:04:00,
2013-01-09 07:19:00,35.1,27.0,29.88,West,274,0.0,0.0,72,0.00,,,0.00,0,weatherlink.com 1.10,2013-01-09 12:19:00,
2013-01-09 07:34:00,34.9,26.0,29.87,West,274,0.0,0.0,71,0.00,,,0.00,12,weatherlink.com 1.10,2013-01-09 12:34:00,
2013-01-09 07:49:00,35.0,26.0,29.87,West,274,0.0,0.0,71,0.00,,,0.00,26,weatherlink.com 1.10,2013-01-09 12:49:00,
2013-01-09 08:04:00,35.6,26.0,29.87,West,274,0.0,0.0,69,0.00,,,0.00,26,weatherlink.com 1.10,2013-01-09 13:04:00,
2013-01-09 08:19:00,35.2,27.0,29.87,West,274,0.0,0.0,72,0.00,,,0.00,47,weatherlink.com 1.10,2013-01-09 13:19:00,
2013-01-09 08:34:00,36.4,27.0,29.87,West,274,0.0,0.0,69,0.00,,,0.00,54,weatherlink.com 1.10,2013-01-09 13:34:00,
2013-01-09 08:49:00,36.4,27.0,29.87,West,274,0.0,0.0,70,0.00,,,0.00,77,weatherlink.com 1.10,2013-01-09 13:49:00,
2013-01-09 09:04:00,37.7,29.0,29.87,West,274,0.0,0.0,70,0.00,,,0.00,100,weatherlink.com 1.10,2013-01-09 14:04:00,
2013-01-09 09:19:00,37.5,29.0,29.88,West,266,0.0,0.0,71,0.00,,,0.00,118,weatherlink.com 1.10,2013-01-09 14:19:00,
2013-01-09 09:34:00,37.8,29.0,29.87,West,266,0.0,0.0,71,0.00,,,0.00,134,weatherlink.com 1.10,2013-01-09 14:34:00,
2013-01-09 09:49:00,38.3,30.0,29.87,West,266,0.0,0.0,72,0.00,,,0.00,148,weatherlink.com 1.10,2013-01-09 14:49:00,
2013-01-09 10:05:00,38.7,30.0,29.87,West,265,0.0,1.0,71,0.00,,,0.00,178,weatherlink.com 1.10,2013-01-09 15:05:00,
2013-01-09 10:20:00,39.8,31.0,29.85,ESE,107,2.0,3.0,70,0.00,,,0.00,195,weatherlink.com 1.10,2013-01-09 15:20:00,
2013-01-09 10:35:00,39.2,30.0,29.83,SSE,163,0.0,2.0,70,0.00,,,0.00,142,weatherlink.com 1.10,2013-01-09 15:35:00,
2013-01-09 10:50:00,39.7,31.0,29.82,South,170,0.0,1.0,72,0.00,,,0.00,172,weatherlink.com 1.10,2013-01-09 15:50:00,
2013-01-09 11:05:00,40.2,32.0,29.80,East,100,0.0,2.0,73,0.00,,,0.00,179,weatherlink.com 1.10,2013-01-09 16:05:00,
2013-01-09 11:20:00,40.8,32.0,29.78,East,100,1.0,2.0,72,0.00,,,0.00,165,weatherlink.com 1.10,2013-01-09 16:20:00,
2013-01-09 11:35:00,42.0,34.0,29.79,SW,224,0.0,3.0,73,0.00,,,0.00,121,weatherlink.com 1.10,2013-01-09 16:35:00,
2013-01-09 11:50:00,42.2,34.0,29.79,SSW,210,0.0,2.0,74,0.00,,,0.00,107,weatherlink.com 1.10,2013-01-09 16:50:00,
2013-01-09 12:05:00,42.1,35.0,29.78,SSW,207,0.0,2.0,75,0.00,,,0.00,107,weatherlink.com 1.10,2013-01-09 17:05:00,
2013-01-09 12:20:00,42.4,35.0,29.75,WSW,238,0.0,1.0,75,0.00,,,0.00,105,weatherlink.com 1.10,2013-01-09 17:20:00,
2013-01-09 12:35:00,42.5,35.0,29.74,SW,236,0.0,0.0,75,0.00,,,0.00,91,weatherlink.com 1.10,2013-01-09 17:35:00,
2013-01-09 12:50:00,43.0,36.0,29.73,SSW,194,0.0,3.0,75,0.00,,,0.00,83,weatherlink.com 1.10,2013-01-09 17:50:00,
2013-01-09 13:05:00,42.9,36.0,29.75,SSW,211,0.0,0.0,75,0.00,,,0.00,77,weatherlink.com 1.10,2013-01-09 18:05:00,
2013-01-09 13:20:00,42.5,35.0,29.75,East,98,0.0,1.0,76,0.00,,,0.00,32,weatherlink.com 1.10,2013-01-09 18:20:00,
2013-01-09 13:35:00,42.0,35.0,29.75,East,84,0.0,0.0,76,0.00,,,0.00,26,weatherlink.com 1.10,2013-01-09 18:35:00,
2013-01-09 13:50:00,41.4,34.0,29.75,East,84,0.0,0.0,76,0.00,,,0.00,23,weatherlink.com 1.10,2013-01-09 18:50:00,
2013-01-09 14:05:00,41.0,34.0,29.74,East,87,0.0,1.0,76,0.00,,,0.00,19,weatherlink.com 1.10,2013-01-09 19:05:00,
2013-01-09 14:20:00,40.8,34.0,29.71,SE,134,0.0,3.0,76,0.00,,,0.00,30,weatherlink.com 1.10,2013-01-09 19:20:00,
2013-01-09 14:35:00,41.0,34.0,29.68,SE,134,0.0,2.0,76,0.00,,,0.00,30,weatherlink.com 1.10,2013-01-09 19:35:00,
2013-01-09 14:50:00,41.4,34.0,29.63,West,279,2.0,8.0,76,0.00,,,0.00,19,weatherlink.com 1.10,2013-01-09 19:50:00,
2013-01-09 15:05:00,41.5,35.0,29.66,West,271,0.0,1.0,77,0.00,,,0.00,14,weatherlink.com 1.10,2013-01-09 20:05:00,
2013-01-09 15:20:00,41.5,35.0,29.66,SW,216,0.0,1.0,77,0.00,,,0.00,14,weatherlink.com 1.10,2013-01-09 20:20:00,
2013-01-09 15:35:00,41.5,35.0,29.64,SW,216,0.0,0.0,77,0.00,,,0.00,7,weatherlink.com 1.10,2013-01-09 20:35:00,
2013-01-09 15:50:00,41.5,35.0,29.64,SSW,209,0.0,0.0,78,0.00,,,0.00,21,weatherlink.com 1.10,2013-01-09 20:50:00,
2013-01-09 16:20:00,41.3,35.0,29.65,SSW,211,0.0,2.0,78,0.00,,,0.00,0,weatherlink.com 1.10,2013-01-09 21:20:00,
2013-01-09 16:35:00,41.3,35.0,29.64,SSW,207,0.0,2.0,79,0.00,,,0.00,5,weatherlink.com 1.10,2013-01-09 21:35:00,
2013-01-09 16:50:00,41.4,35.0,29.65,WSW,250,0.0,0.0,79,0.00,,,0.00,0,weatherlink.com 1.10,2013-01-09 21:50:00,
2013-01-09 17:05:00,41.6,36.0,29.65,WSW,257,0.0,1.0,79,0.00,,,0.00,0,weatherlink.com 1.10,2013-01-09 22:05:00,
2013-01-09 17:20:00,41.6,35.0,29.65,WNW,294,0.0,0.0,78,0.00,,,0.00,0,weatherlink.com 1.10,2013-01-09 22:20:00,
2013-01-09 17:35:00,41.3,35.0,29.65,West,259,0.0,1.0,79,0.00,,,0.00,0,weatherlink.com 1.10,2013-01-09 22:35:00,
2013-01-09 17:50:00,40.8,35.0,29.65,South,179,0.0,1.0,79,0.00,,,0.00,0,weatherlink.com 1.10,2013-01-09 22:50:00,
2013-01-09 18:05:00,40.4,35.0,29.66,South,179,0.0,0.0,80,0.00,,,0.00,0,weatherlink.com 1.10,2013-01-09 23:05:00,
2013-01-09 18:20:00,40.2,35.0,29.65,SW,215,0.0,2.0,81,0.00,,,0.00,0,weatherlink.com 1.10,2013-01-09 23:20:00,
2013-01-09 18:35:00,40.2,35.0,29.66,WNW,284,0.0,0.0,82,0.00,,,0.00,0,weatherlink.com 1.10,2013-01-09 23:35:00,
2013-01-09 18:50:00,40.2,35.0,29.66,NNW,341,0.0,3.0,82,0.00,,,0.00,0,weatherlink.com 1.10,2013-01-09 23:50:00,
2013-01-09 19:05:00,40.2,35.0,29.66,NE,38,0.0,1.0,83,0.00,,,0.00,0,weatherlink.com 1.10,2013-01-10 00:05:00,
2013-01-09 19:20:00,40.5,36.0,29.67,WNW,300,1.0,3.0,83,0.00,,,0.00,0,weatherlink.com 1.10,2013-01-10 00:20:00,
2013-01-09 19:35:00,40.8,36.0,29.67,NNW,331,0.0,2.0,82,0.00,,,0.00,0,weatherlink.com 1.10,2013-01-10 00:35:00,
2013-01-09 19:51:00,41.0,36.0,29.67,North,360,1.0,2.0,82,0.00,,,0.00,0,weatherlink.com 1.10,2013-01-10 00:51:00,
2013-01-09 20:05:00,41.1,36.0,29.67,NW,308,0.0,2.0,82,0.00,,,0.00,0,weatherlink.com 1.10,2013-01-10 01:05:00,
2013-01-09 20:20:00,40.9,36.0,29.67,South,171,0.0,3.0,82,0.00,,,0.00,0,weatherlink.com 1.10,2013-01-10 01:20:00,
2013-01-09 20:35:00,40.9,36.0,29.66,NW,317,0.0,3.0,82,0.00,,,0.00,0,weatherlink.com 1.10,2013-01-10 01:35:00,
2013-01-09 20:50:00,40.8,35.0,29.66,ESE,123,0.0,1.0,81,0.00,,,0.00,0,weatherlink.com 1.10,2013-01-10 01:50:00,
2013-01-09 21:05:00,40.9,35.0,29.67,WNW,283,1.0,5.0,80,0.00,,,0.00,0,weatherlink.com 1.10,2013-01-10 02:05:00,
2013-01-09 21:21:00,41.1,35.0,29.66,West,277,0.0,1.0,79,0.00,,,0.00,0,weatherlink.com 1.10,2013-01-10 02:21:00,
2013-01-09 21:36:00,41.1,35.0,29.67,WNW,286,0.0,3.0,78,0.00,,,0.00,0,weatherlink.com 1.10,2013-01-10 02:36:00,
2013-01-09 21:51:00,41.3,35.0,29.68,WNW,300,0.0,0.0,78,0.00,,,0.00,0,weatherlink.com 1.10,2013-01-10 02:51:00,
2013-01-09 22:06:00,41.3,35.0,29.68,WNW,300,0.0,0.0,77,0.00,,,0.00,0,weatherlink.com 1.10,2013-01-10 03:06:00,
2013-01-09 22:21:00,41.0,34.0,29.68,WNW,300,0.0,0.0,77,0.00,,,0.00,0,weatherlink.com 1.10,2013-01-10 03:21:00,
2013-01-09 22:36:00,40.7,34.0,29.68,WNW,300,0.0,0.0,78,0.00,,,0.00,0,weatherlink.com 1.10,2013-01-10 03:36:00,
2013-01-09 22:51:00,40.6,34.0,29.68,WNW,298,0.0,3.0,78,0.00,,,0.00,0,weatherlink.com 1.10,2013-01-10 03:51:00,
2013-01-09 23:06:00,40.7,34.0,29.69,WNW,300,0.0,1.0,77,0.00,,,0.00,0,weatherlink.com 1.10,2013-01-10 04:06:00,
2013-01-09 23:21:00,40.9,34.0,29.69,West,279,0.0,4.0,75,0.00,,,0.00,0,weatherlink.com 1.10,2013-01-10 04:21:00,
2013-01-09 23:36:00,41.1,33.0,29.70,WNW,289,0.0,3.0,73,0.00,,,0.00,0,weatherlink.com 1.10,2013-01-10 04:36:00,
2013-01-09 23:51:00,41.2,33.0,29.70,WNW,292,0.0,3.0,72,0.00,,,0.00,0,weatherlink.com 1.10,2013-01-10 04:51:00,